Powrót do katalogu

STARLINK-6215

AktywnyŁącznośćVLEO
NORAD 57367·PAYLOAD·🇺🇸 United States

Wystrzelony Jul 16, 2023 z Cape Canaveral Space Force Station

Loading…

Następne Przeloty (najbliższe 24 godziny)

TLE

ŚwieżeSource: CelesTrak SupGP

Epoka: Sep 14, 2026, 13:43 UTC

1 57367C 23099AR  26257.57201389 -.00088644  00000+0 -32102-2 0  2576
2 57367  43.0012 236.3745 0001010 275.1252  16.8173 15.27627827    10

Śledź STARLINK-6215 w czasie rzeczywistym z AllMySat

Download on the App Store